• En España
  • Lista de países
  • Para 7 días
  • Temperatura del agua
  • Mapa Satelital
  • El tiempo en el mapa
  • Informadores
  • user-avatar
    Iniciar sesión

    Tiempo cada hora Gutorovo

    Hoy, 20 Septiembre, Jueves

    Tiempo Temperatura Precipitaciones Viento Presión Humedad
    00:00 +16°C° 0 mm 3 mps 750 mmHg 92%
    01:00 +16°C° 0 mm 3 mps 750 mmHg 93%
    02:00 +15°C° 0 mm 2 mps 750 mmHg 93%
    03:00 +14°C° 0 mm 3 mps 750 mmHg 94%
    04:00 +14°C° 0 mm 3 mps 750 mmHg 94%
    05:00 +14°C° 0 mm 3 mps 750 mmHg 95%
    06:00 +16°C° 0 mm 3 mps 750 mmHg 90%
    07:00 +17°C° 0 mm 4 mps 750 mmHg 86%
    08:00 +19°C° 0 mm 4 mps 750 mmHg 81%
    09:00 +20°C° 0 mm 4 mps 750 mmHg 76%
    10:00 +22°C° 0 mm 5 mps 750 mmHg 71%
    11:00 +25°C° 0 mm 5 mps 750 mmHg 66%
    12:00 +26°C° 0 mm 5 mps 750 mmHg 63%
    13:00 +26°C° 0 mm 5 mps 750 mmHg 60%
    14:00 +27°C° 0 mm 5 mps 750 mmHg 57%
    15:00 +26°C° 0 mm 4 mps 750 mmHg 62%
    16:00 +24°C° 0 mm 3 mps 750 mmHg 66%
    17:00 +22°C° 0 mm 3 mps 750 mmHg 71%
    18:00 +21°C° 0 mm 3 mps 750 mmHg 75%
    19:00 +19°C° 0 mm 2 mps 750 mmHg 79%
    20:00 +18°C° 0 mm 2 mps 750 mmHg 83%
    21:00 +17°C° 0 mm 2 mps 750 mmHg 85%
    22:00 +17°C° 0 mm 2 mps 751 mmHg 87%
    23:00 +16°C° 0 mm 2 mps 751 mmHg 88%

    Mañana, 21 Septiembre, Viernes

    Tiempo Temperatura Precipitaciones Viento Presión Humedad
    00:00 +16°C° 0 mm 2 mps 751 mmHg 89%
    01:00 +15°C° 0 mm 1 mps 751 mmHg 90%
    02:00 +15°C° 0 mm 1 mps 751 mmHg 91%
    03:00 +15°C° 0 mm 1 mps 752 mmHg 91%
    04:00 +14°C° 0 mm 1 mps 752 mmHg 91%
    05:00 +14°C° 0 mm 1 mps 752 mmHg 91%
    06:00 +15°C° 0 mm 1 mps 752 mmHg 86%
    07:00 +18°C° 0 mm 1 mps 752 mmHg 81%
    08:00 +19°C° 0 mm 1 mps 753 mmHg 75%
    09:00 +21°C° 0 mm 1 mps 753 mmHg 69%
    10:00 +23°C° 0 mm 1 mps 753 mmHg 62%
    11:00 +24°C° 0 mm 1 mps 753 mmHg 55%
    12:00 +25°C° 0 mm 1 mps 753 mmHg 52%
    13:00 +26°C° 0 mm 1 mps 753 mmHg 49%
    14:00 +26°C° 0 mm 1 mps 752 mmHg 46%
    15:00 +25°C° 0 mm 1 mps 752 mmHg 51%
    16:00 +24°C° 0 mm 1 mps 752 mmHg 55%
    17:00 +23°C° 0 mm 1 mps 752 mmHg 60%
    18:00 +22°C° 0 mm 1 mps 752 mmHg 62%
    19:00 +21°C° 0 mm 1 mps 752 mmHg 63%
    20:00 +20°C° 0 mm 1 mps 752 mmHg 65%
    21:00 +18°C° 0 mm 2 mps 752 mmHg 67%
    22:00 +18°C° 0 mm 2 mps 752 mmHg 68%
    23:00 +17°C° 0 mm 2 mps 752 mmHg 70%

    Pasado mañana, 22 Septiembre, Sábado

    Tiempo Temperatura Precipitaciones Viento Presión Humedad
    00:00 +17°C° 0 mm 2 mps 752 mmHg 71%
    01:00 +17°C° 0 mm 2 mps 752 mmHg 73%
    02:00 +16°C° 0 mm 2 mps 752 mmHg 75%
    03:00 +16°C° 0 mm 2 mps 752 mmHg 75%
    04:00 +16°C° 0 mm 2 mps 751 mmHg 76%
    05:00 +16°C° 0 mm 3 mps 751 mmHg 77%
    06:00 +17°C° 0 mm 3 mps 751 mmHg 74%
    07:00 +18°C° 0 mm 3 mps 751 mmHg 70%
    08:00 +20°C° 0 mm 4 mps 751 mmHg 67%
    09:00 +21°C° 0 mm 4 mps 751 mmHg 63%
    10:00 +23°C° 0 mm 5 mps 750 mmHg 59%
    11:00 +26°C° 0 mm 5 mps 750 mmHg 54%
    12:00 +26°C° 0 mm 5 mps 750 mmHg 53%
    13:00 +27°C° 0 mm 6 mps 749 mmHg 51%
    14:00 +27°C° 0 mm 6 mps 749 mmHg 49%
    15:00 +26°C° 0 mm 5 mps 748 mmHg 54%
    16:00 +25°C° 0 mm 4 mps 748 mmHg 59%
    17:00 +24°C° 0 mm 3 mps 747 mmHg 64%
    18:00 +22°C° 0 mm 3 mps 747 mmHg 65%
    19:00 +21°C° 0 mm 4 mps 747 mmHg 65%
    20:00 +20°C° 0 mm 4 mps 746 mmHg 65%
    21:00 +20°C° 0 mm 4 mps 746 mmHg 64%
    22:00 +20°C° 0 mm 4 mps 746 mmHg 63%
    23:00 +20°C° 0 mm 5 mps 746 mmHg 62%

    23 Septiembre, Domingo

    Tiempo Temperatura Precipitaciones Viento Presión Humedad
    00:00 +19°C° 0.1 mm 4 mps 745 mmHg 65%
    01:00 +18°C° 0.1 mm 4 mps 745 mmHg 68%
    02:00 +17°C° 0.1 mm 3 mps 745 mmHg 71%
    03:00 +16°C° 0.5 mm 3 mps 744 mmHg 76%
    04:00 +15°C° 0.5 mm 4 mps 744 mmHg 81%
    05:00 +14°C° 0.5 mm 4 mps 744 mmHg 85%
    06:00 +13°C° 0.8 mm 4 mps 744 mmHg 86%
    07:00 +12°C° 0.8 mm 5 mps 744 mmHg 88%
    08:00 +10°C° 0.8 mm 5 mps 744 mmHg 89%
    09:00 +9°C° 1.7 mm 6 mps 744 mmHg 89%
    10:00 +8°C° 1.7 mm 6 mps 744 mmHg 89%
    11:00 +7°C° 1.7 mm 6 mps 745 mmHg 89%
    12:00 +8°C° 0.3 mm 6 mps 745 mmHg 86%
    13:00 +9°C° 0.3 mm 6 mps 745 mmHg 83%
    14:00 +10°C° 0.3 mm 5 mps 746 mmHg 80%
    15:00 +12°C° 0 mm 5 mps 746 mmHg 79%
    16:00 +12°C° 0 mm 4 mps 746 mmHg 79%
    17:00 +12°C° 0 mm 3 mps 746 mmHg 78%
    18:00 +11°C° 0 mm 3 mps 746 mmHg 80%
    19:00 +10°C° 0 mm 3 mps 747 mmHg 82%
    20:00 +9°C° 0 mm 3 mps 747 mmHg 84%
    21:00 +9°C° 0 mm 3 mps 747 mmHg 85%
    22:00 +9°C° 0 mm 3 mps 747 mmHg 86%
    23:00 +9°C° 0 mm 3 mps 747 mmHg 87%

    24 Septiembre, Lunes

    Tiempo Temperatura Precipitaciones Viento Presión Humedad
    00:00 +8°C° 0 mm 3 mps 747 mmHg 88%
    01:00 +8°C° 0 mm 3 mps 747 mmHg 89%
    02:00 +8°C° 0 mm 3 mps 747 mmHg 89%
    03:00 +8°C° 0 mm 3 mps 747 mmHg 88%
    04:00 +8°C° 0 mm 3 mps 746 mmHg 87%
    05:00 +7°C° 0 mm 3 mps 746 mmHg 86%
    06:00 +8°C° 0 mm 4 mps 746 mmHg 81%
    07:00 +9°C° 0 mm 5 mps 745 mmHg 77%
    08:00 +10°C° 0 mm 6 mps 745 mmHg 72%
    09:00 +10°C° 0.3 mm 6 mps 744 mmHg 74%
    10:00 +10°C° 0.3 mm 7 mps 743 mmHg 76%
    11:00 +10°C° 0.3 mm 8 mps 742 mmHg 78%
    12:00 +10°C° 1.6 mm 8 mps 742 mmHg 80%
    13:00 +10°C° 1.6 mm 9 mps 741 mmHg 82%
    14:00 +8°C° 1.6 mm 9 mps 740 mmHg 83%
    15:00 +10°C° 0.6 mm 9 mps 739 mmHg 84%
    16:00 +11°C° 0.6 mm 10 mps 738 mmHg 84%
    17:00 +11°C° 0.6 mm 10 mps 737 mmHg 84%
    18:00 +11°C° 0.9 mm 10 mps 736 mmHg 84%
    19:00 +11°C° 0.9 mm 9 mps 735 mmHg 84%
    20:00 +10°C° 0.9 mm 9 mps 735 mmHg 84%
    21:00 +9°C° 0.2 mm 10 mps 734 mmHg 83%
    22:00 +8°C° 0.2 mm 10 mps 734 mmHg 81%
    23:00 +7°C° 0.2 mm 10 mps 733 mmHg 80%

    25 Septiembre, Martes

    Tiempo Temperatura Precipitaciones Viento Presión Humedad
    00:00 +7°C° 0.1 mm 11 mps 734 mmHg 79%
    01:00 +7°C° 0.1 mm 11 mps 734 mmHg 79%
    02:00 +7°C° 0.1 mm 11 mps 734 mmHg 79%
    03:00 +6°C° 0.1 mm 11 mps 735 mmHg 78%
    04:00 +6°C° 0.1 mm 11 mps 736 mmHg 77%
    05:00 +6°C° 0.1 mm 11 mps 736 mmHg 76%
    06:00 +6°C° 0 mm 11 mps 737 mmHg 75%
    07:00 +6°C° 0 mm 11 mps 738 mmHg 74%
    08:00 +4°C° 0 mm 11 mps 739 mmHg 73%
    09:00 +6°C° 0 mm 10 mps 740 mmHg 71%
    10:00 +6°C° 0 mm 10 mps 741 mmHg 70%
    11:00 +6°C° 0 mm 10 mps 742 mmHg 68%
    12:00 +6°C° 0 mm 10 mps 743 mmHg 66%
    13:00 +6°C° 0 mm 9 mps 743 mmHg 65%
    14:00 +6°C° 0 mm 9 mps 744 mmHg 63%
    15:00 +6°C° 0 mm 8 mps 745 mmHg 63%
    16:00 +6°C° 0 mm 7 mps 745 mmHg 63%
    17:00 +7°C° 0 mm 5 mps 746 mmHg 63%
    18:00 +6°C° 0 mm 5 mps 746 mmHg 65%
    19:00 +5°C° 0 mm 5 mps 747 mmHg 67%
    20:00 +5°C° 0 mm 5 mps 748 mmHg 69%
    21:00 +3°C° 0 mm 5 mps 748 mmHg 70%
    22:00 +3°C° 0 mm 5 mps 749 mmHg 72%
    23:00 +3°C° 0 mm 5 mps 749 mmHg 73%
    Mostrar más